{"data":{"norad_id":65505,"epoch":"2026-09-20T21:55:08.838336Z","epoch_age_seconds":76301,"freshness":"FRESH","line1":"1 65505U 25198P   26263.91329674  .00017050  00000+0  51447-3 0  9992","line2":"2 65505  53.1605  79.6667 0001893  67.5651 292.5552 15.34407838 58573","mean_motion":15.34407838,"eccentricity":0.0001893,"inclination_deg":53.1605,"raan_deg":79.6667,"arg_perigee_deg":67.5651,"mean_anomaly_deg":292.5552,"bstar":0.00051447,"rev_number":5857,"period_min":93.847278692016,"perigee_km":461.38497747097,"apogee_km":463.97491076601,"semimajor_km":6840.8169441185,"source":"CELESTRAK","updated_at":"2026-09-21T09:00:35.643912Z"}}